Location: Lafig�re
(44.4503°N, 4.0357°E)
Time: 14:16:16
(UTC+00:00)

S-56A Canister/Altair - Pass Details

Date: 23 January 2021
Orbit: 631 x 2501 km, 38.9° (Epoch: 01 March)

Event Time Altitude Azimuth Distance (km) Brightness Sun altitude
Rises 01:32:24 0° 214° (SW) 3,102 - -57.9°
Reaches altitude 10° 01:35:36 10° 193° (SSW) 2,057 - -57.5°
Maximum altitude 01:38:30 17° 153° (SSE) 1,610 - -57.1°
Drops below altitude 10° 01:41:21 10° 112° (ESE) 2,017 - -56.7°
Sets 01:44:27 0° 92° (E) 3,012 - -56.3°
